EW7244 Weather Reports


time (UTC)temp
C
wind
direction
speed
KPH
gust
KPH
rain 1hr
cm
rain 24hr
cm
rain mn
cm
humidity
%
barometer
mb
20260901101557 23 207 0.0 0.0 0.00 0.00 0.00 65 1015.2
20260901100054 22 98 0.0 0.0 0.00 0.00 0.00 66 1015.3
20260901094549 22 115 0.0 0.0 0.00 0.00 0.00 67 1015.4
20260901093041 21 96 0.0 0.0 0.00 0.00 0.00 70 1015.5
20260901091558 21 71 0.0 0.0 0.00 0.00 0.00 71 1015.4
20260901090053 21 155 0.0 0.0 0.00 0.00 0.00 74 1015.5
20260901084551 20 101 0.0 0.0 0.00 0.00 0.00 75 1015.4
20260901083044 20 108 0.0 0.0 0.00 0.00 0.00 75 1015.4
20260901081601 19 122 0.0 0.0 0.00 0.00 0.00 74 1015.3
20260901080142 19 113 0.0 0.0 0.00 0.00 0.00 79 1015.2
20260901074546 18 147 0.0 0.0 0.00 0.00 0.00 80 1015.1
20260901073035 18 142 0.0 0.0 0.00 0.00 0.00 82 1015.2
20260901071527 17 142 0.0 0.0 0.00 0.00 0.00 82 1015.2
20260901070002 17 144 0.0 0.0 0.00 0.00 0.00 80 1015.1
20260901064606 17 128 0.0 0.0 0.00 0.00 0.00 83 1015.1
20260901063105 17 123 0.0 0.0 0.00 0.00 0.00 84 1015.1
20260901061606 17 151 0.0 0.0 0.00 0.00 0.00 85 1015.1
20260901060046 18 151 0.0 0.0 0.00 0.00 0.00 81 1015.0
20260901054543 18 225 0.0 0.0 0.00 0.00 0.00 80 1014.9
20260901053056 17 226 0.0 0.0 0.00 0.00 0.00 84 1014.8
20260901051550 16 226 0.0 0.0 0.00 0.00 0.00 85 1014.6
20260901050042 16 226 0.0 0.0 0.00 0.00 0.00 86 1014.4
20260901044612 16 226 0.0 0.0 0.00 0.00 0.00 86 1014.0
20260901043051 16 226 0.0 0.0 0.00 0.00 0.00 86 1014.0
20260901041545 16 226 0.0 0.0 0.00 0.00 0.00 85 1014.1
20260901040053 16 226 0.0 0.0 0.00 0.00 0.00 84 1013.7
20260901034554 17 226 0.0 0.0 0.00 0.00 0.00 84 1013.5
20260901033051 17 226 0.0 0.0 0.00 0.00 0.00 85 1013.5
20260901031544 17 226 0.0 0.0 0.00 0.00 0.00 84 1013.4
20260901030056 17 226 0.0 0.0 0.00 0.00 0.00 84 1013.6
20260901024601 17 226 0.0 0.0 0.00 0.00 0.00 84 1013.5
20260901023100 17 226 0.0 0.0 0.00 0.00 0.00 85 1013.6
20260901021602 17 185 0.0 0.0 0.00 0.00 0.00 84 1013.6
20260901020023 17 185 0.0 0.0 0.00 0.00 0.00 85 1013.5
20260901014514 17 185 0.0 0.0 0.00 0.00 0.00 83 1013.5
20260901013007 17 185 0.0 0.0 0.00 0.00 0.00 82 1013.5
20260901011600 18 185 0.0 0.0 0.00 0.00 0.00 82 1013.6
20260901010054 18 185 0.0 0.0 0.00 0.00 0.00 81 1013.5
20260901004659 18 157 0.0 0.0 0.00 0.00 0.00 80 1013.4
20260901003059 18 157 0.0 0.0 0.00 0.00 0.00 78 1013.4
20260901001554 19 155 0.0 0.0 0.00 0.00 0.00 76 1013.3
20260901000049 19 67 0.0 0.0 0.00 0.00 0.00 76 1013.3
20260831234543 19 85 0.0 0.0 0.00 0.00 0.00 75 1012.9
20260831233058 20 85 0.0 0.0 0.00 0.00 0.00 73 1012.8
20260831231603 20 217 0.0 0.0 0.00 0.00 0.00 73 1012.3
20260831230051 21 267 0.0 0.0 0.00 0.00 0.00 75 1012.1
20260831224601 20 58 0.0 0.0 0.00 0.00 0.00 80 1011.8
20260831223051 20 218 0.0 0.0 0.00 0.00 0.00 80 1011.2
20260831221552 21 154 0.0 0.0 0.00 0.00 0.00 79 1010.7
20260831220049 20 292 0.0 0.0 0.00 0.00 0.00 81 1010.6
20260831214604 20 292 0.0 0.0 0.00 0.00 0.00 80 1010.5
20260831213047 21 292 0.0 0.0 0.00 0.00 0.00 78 1010.4
20260831211603 21 292 0.0 0.0 0.00 0.00 0.00 77 1010.4
20260831210039 21 292 0.0 0.0 0.00 0.00 0.00 76 1010.3
20260831204538 21 277 0.0 0.0 0.00 0.00 0.00 75 1010.2
20260831203030 21 277 0.0 0.0 0.00 0.00 0.00 75 1009.8
20260831201506 22 277 0.0 0.0 0.00 0.00 0.00 73 1009.7
20260831200036 22 284 0.0 0.0 0.00 0.00 0.00 72 1009.7
20260831194626 22 288 0.0 0.0 0.00 0.00 0.00 72 1009.6
20260831193058 22 290 0.0 0.0 0.00 0.00 0.00 72 1009.4
20260831191550 22 292 0.0 0.0 0.00 0.00 0.00 71 1009.1
20260831190043 22 323 0.0 0.0 0.00 0.00 0.00 70 1008.7
20260831184554 22 332 0.0 0.0 0.00 0.00 0.00 73 1008.6
20260831183048 22 271 0.0 0.0 0.00 0.00 0.00 72 1008.4
20260831181546 23 271 0.0 0.0 0.00 0.00 0.00 70 1008.2
20260831180056 23 271 0.0 0.0 0.00 0.00 0.00 70 1008.2
20260831174550 23 274 0.0 0.0 0.00 0.00 0.00 67 1008.1
20260831173047 24 274 0.0 0.0 0.00 0.00 0.00 67 1008.2
20260831171540 25 270 0.0 0.0 0.00 0.00 0.00 66 1008.2
20260831170101 25 311 0.0 0.0 0.00 0.00 0.00 67 1008.3
20260831164547 26 311 0.0 0.0 0.00 0.00 0.00 65 1008.3
20260831163043 26 311 0.0 0.0 0.00 0.00 0.00 64 1008.5
20260831161557 26 311 0.0 0.0 0.00 0.00 0.00 63 1008.6
20260831160043 26 311 0.0 0.0 0.00 0.00 0.00 61 1008.6
20260831154558 27 266 0.0 0.0 0.00 0.00 0.00 58 1008.6
20260831153009 27 252 0.0 0.0 0.00 0.00 0.00 57 1008.7
20260831151611 28 238 0.0 0.0 0.00 0.00 0.00 55 1008.7
20260831150059 28 132 0.0 0.0 0.00 0.00 0.00 51 1008.7
20260831144557 28 92 0.0 0.0 0.00 0.00 0.00 50 1008.8
20260831143046 29 207 0.0 0.0 0.00 0.00 0.00 52 1008.8
20260831141541 30 258 0.0 0.0 0.00 0.00 0.00 48 1008.7
20260831140159 29 30 0.0 0.0 0.00 0.00 0.00 46 1008.6
20260831134558 29 304 0.0 0.0 0.00 0.00 0.00 44 1008.9
20260831133044 29 26 0.0 0.0 0.00 0.00 0.00 45 1009.0
20260831131542 28 84 0.0 0.0 0.00 0.00 0.00 44 1009.1
20260831130038 30 203 0.0 0.0 0.00 0.00 0.00 42 1009.2
20260831124516 29 202 0.0 0.0 0.00 0.00 0.00 43 1009.3
20260831123039 28 234 0.0 0.0 0.00 0.00 0.00 45 1009.4
20260831121542 28 94 0.0 0.0 0.00 0.00 0.00 48 1009.5
20260831120046 28 232 0.0 0.0 0.00 0.00 0.00 47 1009.7
20260831114540 28 119 0.0 0.0 0.00 0.00 0.00 49 1009.8
20260831113050 27 87 0.0 0.0 0.00 0.00 0.00 53 1010.0
20260831111547 27 54 0.0 0.0 0.00 0.00 0.00 53 1010.1
20260831110039 27 120 0.0 0.0 0.00 0.00 0.00 53 1010.2
20260831104554 26 74 0.0 0.0 0.00 0.00 0.00 55 1010.4
20260831103053 26 146 0.0 0.0 0.00 0.00 0.00 56 1010.5
20260831101643 25 188 0.0 0.0 0.00 0.00 0.00 60 1010.6